Location: Haliburton Scout Reserve
(45.0900°N, 78.3200°W)
Time: 18:49:05
(UTC-04:00)

STRAND 1 - Pass Details

Date: 06 April 2023
Orbit: 767 x 779 km, 98.4° (Epoch: 06 June)

Event Time Altitude Azimuth Distance (km) Brightness Sun altitude
Rises 06:15:06 0° 140° (SE) 3,240 ? -6.0°
Reaches altitude 10° 06:17:33 10° 132° (SE) 2,315 ? -5.6°
Maximum altitude 06:22:10 36° 67° (ENE) 1,214 ? -4.8°
Drops below altitude 10° 06:26:48 10° 2° (N) 2,323 ? -4.0°
Sets 06:29:15 0° 354° (N) 3,253 ? -3.6°
